This is the latest recevied weather packets stored in our database for station/object PA3BWK. If no packets are shown the sender has not sent any weather packets the latest 10 day(s).
| Time | Temp. | Humidity | Pressure | Rain* | Wind** | Luminosity | Snow |
|---|---|---|---|---|---|---|---|
| 1788188552 | 20° C | 68% | 1011.8 hPa | 0 mm | - | 100 W/m² | - |
| 1788188491 | 20° C | 69% | 1011.8 hPa | 0 mm | - | 128 W/m² | - |
| 1788188431 | 20° C | 68% | 1011.9 hPa | 0 mm | - | 111 W/m² | - |
| 1788188371 | 20° C | 68% | 1011.9 hPa | 0 mm | - | 99 W/m² | - |
| 1788188311 | 20° C | 69% | 1011.9 hPa | 0 mm | - | 86 W/m² | - |
| 1788188251 | 20° C | 70% | 1011.9 hPa | 0 mm | - | 85 W/m² | - |
| 1788188193 | 20° C | 70% | 1011.8 hPa | 0 mm | - | 78 W/m² | - |
| 1788188131 | 20° C | 70% | 1011.8 hPa | 0 mm | - | 76 W/m² | - |
| 1788188071 | 20° C | 70% | 1011.7 hPa | 0 mm | - | 76 W/m² | - |
| 1788188012 | 19.44° C | 70% | 1011.8 hPa | 0 mm | - | 90 W/m² | - |
| 1788187953 | 19.44° C | 70% | 1011.8 hPa | 0 mm | - | 99 W/m² | - |
| 1788187891 | 19.44° C | 69% | 1011.8 hPa | 0 mm | - | 153 W/m² | - |
| 1788187830 | 19.44° C | 69% | 1011.7 hPa | 0 mm | - | 153 W/m² | - |
| 1788187772 | 19.44° C | 69% | 1011.7 hPa | 0 mm | - | 158 W/m² | - |
| 1788187711 | 19.44° C | 69% | 1011.8 hPa | 0 mm | - | 167 W/m² | - |
| 1788187649 | 19.44° C | 70% | 1011.8 hPa | 0 mm | - | 171 W/m² | - |
| 1788187587 | 20° C | 70% | 1011.7 hPa | 0 mm | - | 158 W/m² | - |
| 1788187525 | 20° C | 70% | 1011.7 hPa | 0 mm | - | 151 W/m² | - |
| 1788187464 | 20° C | 70% | 1011.7 hPa | 0 mm | - | 146 W/m² | - |
| 1788187403 | 19.44° C | 70% | 1011.7 hPa | 0 mm | - | 155 W/m² | - |
| 1788187341 | 19.44° C | 71% | 1011.7 hPa | 0 mm | - | 195 W/m² | - |
| 1788187282 | 19.44° C | 71% | 1011.5 hPa | 0 mm | - | 218 W/m² | - |
| 1788187218 | 19.44° C | 71% | 1011.6 hPa | 0 mm | - | 211 W/m² | - |
| 1788187157 | 19.44° C | 71% | 1011.6 hPa | 0 mm | - | 204 W/m² | - |
| 1788187095 | 19.44° C | 71% | 1011.6 hPa | 0 mm | - | 179 W/m² | - |
* Rain latest hour (hover to see other rain measurements)
** Current wind speed in m/s (hover to see current wind gust speed)